TimeEDT,TemperatureF,Dew PointF,Humidity,Sea Level PressureIn,VisibilityMPH,Wind Direction,Wind SpeedMPH,Gust SpeedMPH,PrecipitationIn,Events,Conditions,WindDirDegrees,DateUTC
12:03 AM,35.6,33.8,93,29.68,2.5,Variable,3.5,-,N/A,,Overcast,0,2013-03-19 04:03:00
12:10 AM,35.6,35.6,100,29.68,2.5,SSE,5.8,-,N/A,,Overcast,150,2013-03-19 04:10:00
12:18 AM,35.6,35.6,100,29.68,2.5,Calm,Calm,-,N/A,,Overcast,0,2013-03-19 04:18:00
12:31 AM,35.6,35.6,100,29.68,1.5,Variable,3.5,-,0.00,Rain,Light Rain,0,2013-03-19 04:31:00
12:56 AM,36.0,34.9,96,29.76,1.5,Calm,Calm,-,0.01,Rain,Light Rain,0,2013-03-19 04:56:00
12:58 AM,35.6,35.6,100,29.69,1.2,Calm,Calm,-,0.00,Rain,Light Rain,0,2013-03-19 04:58:00
1:11 AM,35.6,35.6,100,29.69,1.0,Calm,Calm,-,0.00,Rain,Light Rain,0,2013-03-19 05:11:00
1:14 AM,35.6,35.6,100,29.69,0.8,Calm,Calm,-,0.00,Rain,Light Rain,0,2013-03-19 05:14:00
1:20 AM,35.6,35.6,100,29.70,0.5,Calm,Calm,-,0.00,Fog-Rain,Light Rain,0,2013-03-19 05:20:00
1:28 AM,35.6,35.6,100,29.70,0.8,Calm,Calm,-,0.00,Rain,Light Rain,0,2013-03-19 05:28:00
1:30 AM,35.6,35.6,100,29.70,1.0,Variable,4.6,-,0.00,,Overcast,0,2013-03-19 05:30:00
1:35 AM,37.4,35.6,93,29.70,1.2,WSW,10.4,-,0.00,,Overcast,250,2013-03-19 05:35:00
1:40 AM,37.4,37.4,100,29.70,2.0,WSW,8.1,-,0.00,,Overcast,250,2013-03-19 05:40:00
1:46 AM,37.4,37.4,100,29.70,3.0,WSW,6.9,-,0.01,,Mostly Cloudy,240,2013-03-19 05:46:00
1:56 AM,36.9,36.9,100,29.78,10.0,WSW,6.9,-,0.01,,Overcast,240,2013-03-19 05:56:00
2:21 AM,37.4,37.4,100,29.71,10.0,West,9.2,-,N/A,,Overcast,260,2013-03-19 06:21:00
2:33 AM,37.4,37.4,100,29.71,4.0,West,11.5,-,N/A,,Overcast,260,2013-03-19 06:33:00
2:37 AM,37.4,37.4,100,29.72,2.5,West,11.5,-,0.00,Rain,Light Rain,260,2013-03-19 06:37:00
2:56 AM,36.9,34.0,89,29.81,10.0,West,16.1,-,0.00,,Overcast,270,2013-03-19 06:56:00
3:03 AM,35.6,33.8,93,29.74,10.0,West,15.0,-,N/A,,Overcast,270,2013-03-19 07:03:00
3:56 AM,34.9,31.1,86,29.83,10.0,WSW,6.9,-,N/A,,Overcast,250,2013-03-19 07:56:00
4:30 AM,35.6,30.2,81,29.76,10.0,SW,4.6,-,N/A,,Overcast,220,2013-03-19 08:30:00
4:56 AM,34.9,30.0,82,29.83,10.0,SW,4.6,-,N/A,,Overcast,220,2013-03-19 08:56:00
5:56 AM,34.0,28.0,79,29.84,10.0,SW,6.9,-,N/A,,Mostly Cloudy,220,2013-03-19 09:56:00
6:56 AM,34.0,27.1,76,29.83,10.0,SSW,8.1,-,N/A,,Mostly Cloudy,210,2013-03-19 10:56:00
7:56 AM,34.0,28.0,79,29.83,10.0,South,6.9,-,0.00,,Overcast,190,2013-03-19 11:56:00
8:05 AM,33.8,28.4,81,29.76,10.0,Variable,5.8,-,0.00,,Overcast,0,2013-03-19 12:05:00
8:56 AM,32.9,30.0,89,29.83,10.0,Variable,4.6,-,0.00,Snow,Light Snow,0,2013-03-19 12:56:00
9:12 AM,35.6,28.4,75,29.75,10.0,SW,16.1,-,0.00,,Overcast,230,2013-03-19 13:12:00
9:56 AM,34.0,24.1,67,29.83,10.0,WSW,16.1,28.8,0.00,,Overcast,240,2013-03-19 13:56:00
10:56 AM,32.9,24.1,70,29.85,10.0,WSW,17.3,-,N/A,,Mostly Cloudy,250,2013-03-19 14:56:00
11:56 AM,30.0,21.0,69,29.87,10.0,West,23.0,-,N/A,,Overcast,260,2013-03-19 15:56:00
12:56 PM,31.1,20.1,64,29.88,10.0,West,17.3,-,0.00,,Mostly Cloudy,260,2013-03-19 16:56:00
1:56 PM,30.0,20.1,67,29.89,9.0,WSW,20.7,-,0.00,Snow,Light Snow,240,2013-03-19 17:56:00
2:56 PM,32.0,22.1,67,29.89,4.0,SW,19.6,-,0.00,Snow,Light Snow,230,2013-03-19 18:56:00
3:56 PM,30.0,22.1,72,29.92,9.0,WSW,17.3,-,0.00,Snow,Light Snow,250,2013-03-19 19:56:00
4:56 PM,30.0,19.0,64,29.94,10.0,SW,20.7,-,0.00,Snow,Light Snow,230,2013-03-19 20:56:00
5:56 PM,30.0,19.0,64,29.96,10.0,WSW,18.4,-,0.00,,Mostly Cloudy,250,2013-03-19 21:56:00
6:56 PM,29.1,18.1,64,29.99,10.0,West,13.8,-,0.00,Snow,Light Snow,260,2013-03-19 22:56:00
7:56 PM,27.1,17.1,66,29.99,10.0,WSW,12.7,-,0.00,,Partly Cloudy,240,2013-03-19 23:56:00
8:56 PM,29.1,17.1,61,30.01,10.0,WSW,15.0,-,N/A,,Mostly Cloudy,250,2013-03-20 00:56:00
9:56 PM,29.1,16.2,58,30.01,10.0,WSW,18.4,-,N/A,,Mostly Cloudy,240,2013-03-20 01:56:00
10:56 PM,28.0,17.1,63,30.02,10.0,West,11.5,-,N/A,,Overcast,260,2013-03-20 02:56:00
11:56 PM,27.1,17.1,66,30.02,10.0,West,9.2,-,N/A,,Partly Cloudy,260,2013-03-20 03:56:00